Hourly Data Report for November 08, 2019

All times are specified in Local Standard Time (LST). Add 1 hour to adjust for Daylight Saving Time where and when it is observed.

PINAWA
MANITOBA
Current Station Operator: ECCC - MSC

50°10'38.020" N
96°03'53.000" W
268.00 m
503B1ER
71448
WEA

Download Data

Hourly Data (November 2019)
Hourly Data Report for November 8, 2019
TIME Temp Definition
°C
Dew Point Definition
°C
Rel Hum Definition
%
Wind Dir Definition
10's deg

Wind Spd Definition
km/h
Visibility Definition
km
Stn Press Definition
kPa
Hmdx Definition


Wind Chill Definition


Weather Definition


00:00 -11.9 LegendMM LegendMM 17 6   99.51   -16 LegendNANA
01:00 -11.2 LegendMM LegendMM 17 6   99.43   -15 LegendNANA
02:00 -10.6 LegendMM LegendMM 17 8   99.33   -15 LegendNANA
03:00 -10.1 LegendMM LegendMM 15 7   99.23   -14 LegendNANA
04:00 -9.4 LegendMM LegendMM 17 10   99.16   -15 LegendNANA
05:00 -8.6 LegendMM LegendMM 15 11   99.05   -14 LegendNANA
06:00 -8.2 LegendMM LegendMM 16 10   98.95   -13 LegendNANA
07:00 -7.8 LegendMM LegendMM 15 9   98.83   -12 LegendNANA
08:00 -7.4 LegendMM LegendMM 16 13   98.72   -13 LegendNANA
09:00 -6.7 LegendMM LegendMM 16 14   98.63   -12 LegendNANA
10:00 -5.6 LegendMM LegendMM 16 11   98.51   -10 LegendNANA
11:00 -4.8 LegendMM LegendMM 17 12   98.45   -10 LegendNANA
12:00 -3.8 LegendMM LegendMM 16 15   98.32   -9 LegendNANA
13:00 -3.3 LegendMM LegendMM 15 13   98.17   -8 LegendNANA
14:00 -2.8 LegendMM LegendMM 15 12   98.13   -7 LegendNANA
15:00 -2.6 LegendMM LegendMM 15 11   98.00   -7 LegendNANA
16:00 -3.4 LegendMM LegendMM 16 11   97.98   -8 LegendNANA
17:00 -3.6 LegendMM LegendMM 15 8   97.94   -7 LegendNANA
18:00 -3.7 LegendMM LegendMM 15 8   97.94   -7 LegendNANA
19:00 -3.7 LegendMM LegendMM 13 6   97.88   -6 LegendNANA
20:00 -4.0 LegendMM LegendMM 13 5   97.84   -6 LegendNANA
21:00 -4.0 LegendMM LegendMM 13 5   97.79   -6 LegendNANA
22:00 -3.8 LegendMM LegendMM 14 4   97.76   -5 LegendNANA
23:00 -3.9 LegendMM LegendMM 18 3   97.76   -5 LegendNANA

Notes on Data Quality.

Legend

  • E = Estimated
  • M = Missing
  • NA = Not Available
Date modified: